Location: Batesville
(34.7480°N, 83.6110°W)
Time: 00:18:36
(UTC-04:00)

Envisat - Visible Passes

Search period start: 27 April 2018 00:00
Search period end: 07 May 2018 00:00
Orbit: 764 x 766 km, 98.2° (Epoch: 26 April)

Date Brightness Start Highest point End Pass type
(mag) Time Alt. Az. Time Alt. Az. Time Alt. Az.
27 Apr 3.7 21:21:47 10° S 21:26:44 54° W 21:31:42 10° NNW visible
28 Apr 3.1 20:45:03 10° SSE 20:50:02 63° ENE 20:55:03 10° N visible
28 Apr 5.8 22:27:29 10° WSW 22:29:24 12° W 22:31:20 10° WNW visible
29 Apr 4.8 21:48:01 10° SSW 21:52:23 29° W 21:56:48 10° NW visible
30 Apr 3.3 21:10:31 10° S 21:15:34 71° WSW 21:20:39 10° NNW visible
01 May 5.6 22:15:07 10° SW 22:18:09 16° W 22:21:12 10° NW visible
02 May 4.4 21:36:30 10° SSW 21:41:12 38° W 21:45:54 10° NNW visible
03 May 3.0 20:59:21 10° SSE 21:04:25 89° ENE 21:09:31 10° NNW visible
04 May 5.3 22:03:11 10° SW 22:06:54 21° W 22:10:40 10° NW visible
05 May 3.9 21:25:07 10° S 21:30:01 49° W 21:34:56 10° NNW visible
06 May 3.0 20:48:16 10° SSE 20:53:17 70° ENE 20:58:21 10° N visible
06 May 5.9 22:31:40 10° WSW 22:32:43 11° W 22:33:47 10° WNW visible
